Miscellaneous Local Product
Issued by NWS North Platte, NE

Home | Current Version | Previous Version | Text Only | Print | Product List | Glossary On
Versions: 1 2 3 4 5 6 7 8 9 10 11 12 13 14 15 16 17 18 19 20 21 22 23 24 25 26 27 28 29 30 31 32 33 34 35 36 37 38 39 40 41 42 43 44 45 46 47 48 49 50
000
AXUS43 KLBF 190110
MISLBF


WESTERN AND NORTH CENTRAL NEBRASKA HOURLY WEATHER ROUNDUP
NATIONAL WEATHER SERVICE NORTH PLATTE NE
800 PM CDT FRI APR 18 2014

***STATIONS NOT REPORTING VARIABLES SUCH AS SKY/WEATHER OR
PRESSURE ARE PROVIDED BY THE NEBRASKA DEPARTMENT OF
ROADS...RAWS...AND APRS NETWORKS...AND ARE NOT UNDER
NATIONAL WEATHER SERVICE QUALITY CONTROL***

...OBSERVATIONS IN AND NEAR THE EASTERN PANHANDLE OF NEBRASKA...

CITY           SKY/WX    TMP DP  RH WIND       PRES   REMARKS
PINE RIDGE     CLOUDY    74  36  25 S21G33    29.65F
CHADRON        CLOUDY    75  36  24 S16       29.64F
ALLIANCE       MOCLDY    71  31  22 S18G25    29.75F
SIDNEY         MOCLDY    70  31  23 S13       29.84S
WHITECLAY        N/A     74  38  26 S23         N/A
CRESCENT LAKE    N/A     70  36  28 S16G23      N/A
LISCO            N/A     75  26  16 E12         N/A
LEWELLEN         N/A     78  32  18 S13         N/A
$$

...OBSERVATIONS IN SOUTHWEST NEBRASKA AND FAR NORTHEAST COLORADO...

CITY           SKY/WX    TMP DP  RH WIND       PRES   REMARKS
WRAY           FAIR      73  35  24 S14       29.86R
HOLYOKE        FAIR      73  36  25 S15       29.85R
IMPERIAL       CLEAR     70  41  34 S20       29.86R
OGALLALA       PTCLDY    72  35  26 S14G20    29.84S
NORTH PLATTE   PTCLDY    67  43  41 SE9G25    29.88R
MCCOOK         PTCLDY    67  44  43 S17G25    29.92R
LEXINGTON      PTCLDY    67  43  41 S20G25    29.92S
SUTHERLAND       N/A     69  41  35 S15         N/A
GOTHENBURG       N/A     67  45  44 SE3G14      N/A
CALLAWAY         N/A     67  44  43 S28         N/A
$$

...OBSERVATIONS IN NORTH CENTRAL NEBRASKA...

CITY           SKY/WX    TMP DP  RH WIND       PRES   REMARKS
VALENTINE      CLOUDY    69  40  34 S28G37    29.74F
THEDFORD       CLOUDY    70  39  33 S22G32    29.84F
AINSWORTH      MOCLDY    67  41  39 S22G28    29.81S
O`NEILL        CLOUDY    67  38  34 S25G31    29.88S
ORD            MOCLDY    66  41  40 S15G26    29.91F
BROKEN BOW     PTCLDY    65  43  44 S16       29.91S
BROWNLEE         N/A     71  35  26 S25         N/A
SPRINGVIEW       N/A     68  44  41 S8G18       N/A
DUNNING          N/A     69  42  37 S21         N/A
BREWSTER         N/A     71  44  37 S20         N/A
ROSE             N/A     71  50  46 SE22        N/A
NEWPORT          N/A     68  44  42 S24         N/A
COMSTOCK         N/A     71  45  39 S16         N/A
CHAMBERS         N/A     64  40  41 S13G24      N/A
EWING            N/A     64  42  44 S12G23      N/A
$$

...SOME WEATHER OBSERVATIONS FROM AROUND THE REGION...

CITY           SKY/WX    TMP DP  RH WIND       PRES   REMARKS
DENVER         CLOUDY    72  26  18 NW20      29.84R
LARAMIE        CLOUDY    61  23  23 SW17      29.94R
CHEYENNE       CLOUDY    65  24  21 SW12      29.89R
SCOTTSBLUFF    MOCLDY    75  30  19 S15       29.74F
RAPID CITY     MOCLDY    70  42  36 CALM      29.61R
PIERRE         MOCLDY    71  38  29 SE21G31   29.62F
WINNER         FAIR      71  41  33 S30G43    29.72F
SIOUX FALLS    CLOUDY    61  36  39 S23       29.96F
OMAHA          MOCLDY    65  38  36 S14       30.07F
GRAND ISLAND   CLOUDY    66  42  41 S18       29.98F
KANSAS CITY    PTCLDY    60  39  45 SE9       30.14F
WICHITA        PTCLDY    66  41  40 S13       30.08F
HAYS           CLEAR     66  43  42 S21G26    30.01R
LIBERAL        PTCLDY    64  43  45 S23G29    30.01R
GOODLAND       MOCLDY    68  42  38 S23G31    29.91R
$$



USA.gov is the U.S. government's official web portal to all federal, state and local government web resources and services.